Location: Peterborough
(44.3091°N, 78.3197°W)
Time: 07:16:05
(UTC-04:00)

Vanguard 1 Rocket - Pass Details

Date: 25 March 2023
Orbit: 655 x 4220 km, 34.3° (Epoch: 04 June)

Event Time Altitude Azimuth Distance (km) Brightness Sun altitude
Rises 22:30:12 0° 220° (SW) 8,441 12.3 -30.3°
Reaches altitude 10° 22:36:46 10° 214° (SW) 7,397 11.9 -31.2°
Enters shadow 22:55:59 40° 168° (SSE) 4,573 10.4 -33.7°
Maximum altitude 22:58:31 41° 155° (SSE) 4,355 - -34.0°
Drops below altitude 10° 23:12:43 10° 92° (E) 4,990 - -35.7°
Sets 23:16:04 0° 85° (E) 5,590 - -36.1°
